Location: Stoke Bliss
(52.2667°N, 2.5167°W)
Time: 21:43:13
(UTC+00:00)

Lacrosse 4 Rocket - Pass Details

Date: 03 March 2021
Orbit: 537 x 620 km, 68.0° (Epoch: 16 April)

Event Time Altitude Azimuth Distance (km) Brightness Sun altitude
Rises 20:48:44 0° 215° (SW) 2,834 5.1 -26.9°
Reaches altitude 10° 20:50:56 10° 216° (SW) 1,947 4.2 -27.2°
Enters shadow 20:51:01 10° 216° (SW) 1,919 4.1 -27.2°
